Location: ??????
(33.3472°N, 35.4764°E)
Time: 18:55:27
(UTC+00:00)

Cosmos 2227 Rocket - Pass Details

Date: 21 August 2019
Orbit: 837 x 847 km, 71.0° (Epoch: 15 October)

Event Time Altitude Azimuth Distance (km) Brightness Sun altitude
Exits shadow 00:37:34 24° 318° (NW) 1,691 3.7 -28.0°
Drops below altitude 10° 00:41:01 10° 354° (N) 2,459 5.0 -27.5°
Sets 00:43:54 0° 8° (N) 3,399 6.0 -27.0°
